FLOCK 3P-74 (42048 NORAD) Tracking and Keplerian Element Data

This shows tracking and keplerian element data for the satellite.

Feedback or suggestion? Click here.




ElementValue
Catalog42048
NameFLOCK 3P-74
Epoch Orbit17291
Epoch Day91.8913799
Epoch Year2020
RAAN160.9933
Inclination97.3752
Eccentricity0.0007542
Argument of Perigee199.6453
Mean Anonmoly160.4496
Mean Motion15.26104475
Decay Rate1.419E-05
L11 42048U 17008DE 20091.89137990 .00001419 00000-0 57805-4 0 9996
L22 42048 97.3752 160.9933 0007542 199.6453 160.4496 15.26104475172914

Live tracking and technical data element details for FLOCK 3P-74 (NORAD 42048). FLOCK 3P-74 can be tracked NOW for your location showing map with azimuth and elevation plus other details from your city location.

Track the satellite on the map from your city or location and see movement details for azimuth, elevation, latitude, longitude, range, height, and movement on the map or in text.







IsCatalogInMostPopularTable: catalog: 42048, numindb: 335
Update: records affected: 1



GetName: 42048 FLOCK 3P-74

Hit Count: updated at: Thu, 02 Apr 2020 03:59:11 GMT